Погода в Североуральске

Россия / Свердловская область     60°09′11″N   59°57′09″E
темп.,
°C
ветер,
м/с
пор.,
м/с
влажн.,
%
обл.,
%
осадки,
мм/ч
давл.,
гПа
погр.,
м
13 июня, вс
вс1323:00+14ююз2357100 0.0 102045
02:00+13юз116128 0.0 102011
05:00+12зюз116598 0.0 102112
08:00+16зюз1156100 0.0 102018
11:00+24ю353555 0.0 10191514
14:00+27ю472963 0.0 10182835
17:00+26ююз373485 0.0 10171984
20:00+23юз3847100 0.1 1016486
14 июня, пн
пн1423:00+18юз24717 0.1 101790
02:00+15юз21085100 0.2 1017248
05:00+15ююз2790100 0.3 1017177
08:00+18ююз498487 0.7 1017479
11:00+24юз594987 0.8 10161593
14:00+28юз573110 0.0 10142654
17:00+28юз573051 0.0 10132804
20:00+25юз484248 0.0 10121189
15 июня, вт
вт1523:00+20зюз51262100 0.0 1013803
02:00+19юз3117315 0.0 1011493
05:00+18юз4107691 0.0 1011539
08:00+21зюз4865100 0.0 1011789
11:00+19зюз2585100 0.7 1012344
14:00+26ссз254620 0.5 10121864
17:00+27зсз343718 0.6 10112122
20:00+17зюз3794100 1.3 1013182
16 июня, ср
ср1623:00+16зсз119583 1.4 101311
02:00+14сз11954 0.0 101411
05:00+14зюз11955 0.0 101411
08:00+19ююз127561 0.0 1014322
11:00+25ююз234768 0.0 10121119
14:00+27ю2337100 0.0 10112310
17:00+28ю343726 0.0 10091991
20:00+25ю265376 0.0 1008295
17 июня, чт
чт1723:00+20зюз386486 0.0 1009271
02:00+18юз31078100 0.1 1008358
05:00+18ююз278077 0.1 1007198
08:00+21ююз257091 0.0 1005286
11:00+22юз6963100 0.4 10051378
14:00+21зсз585498 0.2 10051347
17:00+16сз7115520 0.2 10091210
20:00+15ссз595182 0.0 10111676